Weather History for Bluefield, WV

Change the Weather History Date:

Wednesday, December 12, 2012

  Actual Average Record
Temperature  
Mean Temperature 31 °F 38 °F  
Max Temperature 35 °F 45 °F 65 °F (1965)
Min Temperature 26 °F 30 °F -7 °F (1962)
Degree Days  
Heating Degree Days 34 27  
Month to date heating degree days 180 306  
Since 1 July heating degree days 1252 1209  
Cooling Degree Days 0 0  
Month to date cooling degree days 0 0  
Year to date cooling degree days 1007 853  
Moisture  
Dew Point 25 °F    
Average Humidity 78    
Maximum Humidity 85    
Minimum Humidity 70    
Precipitation  
Precipitation 0.00 in 0.10 in 0.93 in (1964)
Month to date precipitation 0.91 1.18  
Year to date precipitation 41.29 37.90  
Snow  
Snow 0.00 in - - ()
Month to date snowfall T  
Since 1 July snowfall 9.6  
Snow Depth 0.00 in    
Sea Level Pressure  
Sea Level Pressure 30.31 in    
Wind  
Wind Speed 2 mph (East)    
Max Wind Speed 7 mph    
Max Gust Speed 10 mph    
Visibility 10 miles    
Events      
T = Trace of Precipitation, MM = Missing Value Source: NWS Daily Summary

Daily Weather History Graph

Daily Weather History Graph

Search for Another Location

Airport:

Trip Planner

Search our weather history database for the weather conditions in past years. The results will help you decide how hot, cold, wet, or windy it might be!

Date:

Astronomy

Dec. 12, 2012 Rise Set
Actual Time 7:29 AM EST 5:07 PM EST
Civil Twilight 7:00 AM EST 5:36 PM EST
Nautical Twilight 6:28 AM EST 6:09 PM EST
Astronomical Twilight 5:56 AM EST 6:41 PM EST
Moon 6:33 AM EST (12/12) 4:43 PM EST (12/12)
Length of Visible Light 10h 36m
Length of Day
9h 37m
Waning Crescent, 1% of the Moon is Illuminated
Dec 12
Waning Crescent
Dec 13
New
Dec 20
First Quarter
Dec 28
Full
Jan 4
Last Quarter

Hourly Weather History & Observations

Time (EST) Temp. Windchill Dew Point Humidity Pressure Visibility Wind Dir Wind Speed Gust Speed Precip Events Conditions
12:52 AM 28.0 °F - 23.0 °F 81% 30.20 in 10.0 mi Calm Calm - N/A   Clear
1:52 AM 28.0 °F - 23.0 °F 81% 30.22 in 10.0 mi Calm Calm - N/A   Clear
2:52 AM 27.0 °F - 23.0 °F 85% 30.25 in 10.0 mi Calm Calm - N/A   Clear
3:52 AM 28.0 °F - 23.0 °F 81% 30.25 in 10.0 mi Calm Calm - N/A   Clear
4:52 AM 27.0 °F - 21.9 °F 81% 30.27 in 10.0 mi Calm Calm - N/A   Clear
5:52 AM 27.0 °F - 21.9 °F 81% 30.29 in 10.0 mi Calm Calm - N/A   Clear
6:52 AM 27.0 °F - 23.0 °F 85% 30.32 in 9.0 mi Calm Calm - N/A   Clear
7:52 AM 26.1 °F - 23.0 °F 88% 30.34 in 7.0 mi Calm Calm - N/A   Clear
8:09 AM 26.6 °F - 23.0 °F 86% 30.27 in 10.0 mi Calm Calm - N/A   Mostly Cloudy
8:52 AM 28.0 °F 24.2 °F 23.0 °F 81% 30.34 in 10.0 mi ENE 3.5 mph - N/A   Overcast
9:52 AM 30.0 °F 25.2 °F 23.0 °F 75% 30.34 in 10.0 mi ENE 4.6 mph - N/A   Overcast
10:24 AM 30.2 °F 25.4 °F 24.8 °F 80% 30.29 in 10.0 mi East 4.6 mph - N/A   Partly Cloudy
10:52 AM 30.9 °F 26.2 °F 24.1 °F 76% 30.35 in 10.0 mi East 4.6 mph - N/A   Clear
11:52 AM 33.1 °F - 25.0 °F 72% 30.35 in 10.0 mi Calm Calm - N/A   Clear
12:52 PM 34.0 °F 31.0 °F 26.1 °F 73% 30.32 in 10.0 mi Variable 3.5 mph - N/A   Clear
1:52 PM 35.1 °F 31.0 °F 26.1 °F 70% 30.30 in 10.0 mi ENE 4.6 mph - N/A   Clear
2:52 PM 35.1 °F 31.0 °F 27.0 °F 72% 30.30 in 10.0 mi East 4.6 mph - N/A   Clear
3:52 PM 34.0 °F - 26.1 °F 73% 30.32 in 10.0 mi Calm Calm - N/A   Clear
4:52 PM 34.0 °F - 26.1 °F 73% 30.33 in 10.0 mi Calm Calm - N/A   Clear
5:52 PM 33.1 °F 30.0 °F 26.1 °F 75% 30.33 in 10.0 mi East 3.5 mph - N/A   Clear
6:52 PM 32.0 °F 28.7 °F 26.1 °F 79% 30.34 in 10.0 mi East 3.5 mph - N/A   Clear
7:52 PM 30.9 °F - 26.1 °F 82% 30.36 in 10.0 mi Calm Calm - N/A   Clear
8:52 PM 30.0 °F 26.5 °F 26.1 °F 85% 30.35 in 10.0 mi East 3.5 mph - N/A   Clear
9:52 PM 30.0 °F 26.5 °F 26.1 °F 85% 30.34 in 10.0 mi East 3.5 mph - N/A   Clear
10:52 PM 30.0 °F 25.2 °F 26.1 °F 85% 30.33 in 10.0 mi East 4.6 mph - N/A   Clear
11:52 PM 28.9 °F 25.2 °F 25.0 °F 85% 30.35 in 8.0 mi ESE 3.5 mph - N/A   Clear